Location: Kerb�bon
(47.7970°N, 3.3487°W)
Time: 09:37:15
(UTC+00:00)

SJ 16-02 - Pass Details

Date: 12 May 2021
Orbit: 606 x 616 km, 75.0° (Epoch: 18 June)

Event Time Altitude Azimuth Distance (km) Brightness Sun altitude
Exits shadow 21:32:51 12° 193° (SSW) 1,873 3.5 -15.1°
Maximum altitude 21:37:00 77° 108° (ESE) 639 1.2 -15.5°
Drops below altitude 10° 21:41:27 10° 24° (NNE) 1,989 4.3 -16.0°
Sets 21:43:42 0° 23° (NNE) 2,899 5.2 -16.2°
